TimeCDT,TemperatureF,Dew PointF,Humidity,Sea Level PressureIn,VisibilityMPH,Wind Direction,Wind SpeedMPH,Gust SpeedMPH,PrecipitationIn,Events,Conditions,WindDirDegrees,DateUTC
12:15 AM,71.8,67.5,86,30.01,10.0,ESE,5.8,-,N/A,Thunderstorm,Mostly Cloudy,120,2013-09-19 05:15:00
12:35 AM,71.6,67.5,87,30.01,10.0,SE,5.8,-,N/A,,Overcast,130,2013-09-19 05:35:00
12:55 AM,71.6,67.8,88,30.01,10.0,SE,6.9,-,N/A,,Overcast,140,2013-09-19 05:55:00
1:15 AM,70.0,66.2,88,30.01,10.0,ESE,6.9,-,N/A,,Overcast,120,2013-09-19 06:15:00
1:35 AM,69.1,65.1,87,30.01,10.0,SE,8.1,-,N/A,,Overcast,140,2013-09-19 06:35:00
1:55 AM,69.1,65.7,89,30.01,10.0,SE,5.8,-,N/A,,Mostly Cloudy,130,2013-09-19 06:55:00
2:15 AM,68.9,66.2,91,30.00,10.0,SSE,6.9,-,N/A,,Overcast,150,2013-09-19 07:15:00
2:35 AM,68.9,66.2,91,30.00,10.0,SSE,6.9,-,N/A,,Light Drizzle,150,2013-09-19 07:35:00
2:55 AM,68.5,66.6,93,30.00,7.0,SE,6.9,-,N/A,,Mostly Cloudy,140,2013-09-19 07:55:00
3:15 AM,68.7,66.7,93,30.00,7.0,SE,9.2,-,N/A,,Mostly Cloudy,140,2013-09-19 08:15:00
3:35 AM,68.4,66.6,94,29.99,7.0,SE,10.4,-,N/A,,Mostly Cloudy,140,2013-09-19 08:35:00
3:55 AM,68.0,66.4,95,29.99,5.0,SSE,8.1,-,0.03,Rain,Light Rain,150,2013-09-19 08:55:00
4:15 AM,67.5,66.2,96,29.97,5.0,SSE,10.4,-,0.03,Rain,Light Rain,150,2013-09-19 09:15:00
4:35 AM,67.3,66.2,96,29.97,7.0,SSE,10.4,-,0.03,,Light Drizzle,150,2013-09-19 09:35:00
4:55 AM,67.6,66.6,96,29.97,5.0,SE,8.1,-,0.03,,Mostly Cloudy,140,2013-09-19 09:55:00
5:15 AM,67.8,66.9,97,29.97,5.0,SSE,8.1,-,N/A,Thunderstorm,Overcast,150,2013-09-19 10:15:00
5:35 AM,68.4,67.5,97,29.97,5.0,SSE,6.9,-,N/A,,Overcast,150,2013-09-19 10:35:00
5:55 AM,68.4,67.5,97,29.98,5.0,SSE,6.9,-,N/A,,Overcast,150,2013-09-19 10:55:00
6:15 AM,68.4,67.3,96,29.98,5.0,SE,8.1,-,N/A,,Mostly Cloudy,140,2013-09-19 11:15:00
6:35 AM,68.4,67.3,96,29.97,5.0,SSE,5.8,-,N/A,Thunderstorm,Scattered Clouds,160,2013-09-19 11:35:00
6:55 AM,68.9,67.5,95,29.98,5.0,South,6.9,-,N/A,,Scattered Clouds,170,2013-09-19 11:55:00
7:15 AM,69.8,68.2,95,29.97,5.0,South,10.4,-,N/A,,Scattered Clouds,180,2013-09-19 12:15:00
7:35 AM,71.1,69.1,93,29.98,5.0,South,11.5,-,N/A,,Mostly Cloudy,170,2013-09-19 12:35:00
7:55 AM,72.3,69.8,92,29.98,5.0,South,9.2,-,N/A,,Mostly Cloudy,170,2013-09-19 12:55:00
8:15 AM,72.5,69.8,91,29.98,5.0,SSE,15.0,18.4,N/A,Thunderstorm,Overcast,160,2013-09-19 13:15:00
8:35 AM,72.9,70.2,91,29.98,7.0,South,11.5,17.3,N/A,,Mostly Cloudy,180,2013-09-19 13:35:00
8:55 AM,73.2,69.8,89,29.97,7.0,South,11.5,19.6,N/A,,Mostly Cloudy,180,2013-09-19 13:55:00
9:15 AM,74.1,70.3,88,29.97,7.0,South,12.7,18.4,N/A,,Mostly Cloudy,180,2013-09-19 14:15:00
9:35 AM,76.5,70.9,83,29.97,10.0,South,15.0,19.6,N/A,,Scattered Clouds,180,2013-09-19 14:35:00
9:55 AM,76.6,70.7,82,29.97,10.0,South,15.0,20.7,N/A,,Scattered Clouds,190,2013-09-19 14:55:00
10:15 AM,77.9,71.2,80,29.97,10.0,South,12.7,-,N/A,,Scattered Clouds,180,2013-09-19 15:15:00
10:35 AM,79.5,71.8,77,29.97,10.0,South,11.5,-,N/A,,Scattered Clouds,180,2013-09-19 15:35:00
10:55 AM,81.0,71.2,72,29.97,10.0,SSW,16.1,23.0,N/A,,Scattered Clouds,200,2013-09-19 15:55:00
11:15 AM,80.8,71.2,73,29.96,10.0,South,15.0,21.9,N/A,,Scattered Clouds,190,2013-09-19 16:15:00
11:35 AM,82.8,71.6,69,29.95,10.0,SSW,16.1,21.9,N/A,,Scattered Clouds,200,2013-09-19 16:35:00
11:55 AM,85.1,71.6,64,29.95,10.0,SSW,17.3,24.2,N/A,,Clear,210,2013-09-19 16:55:00
12:15 PM,86.2,71.6,62,29.95,10.0,SSW,16.1,23.0,N/A,,Scattered Clouds,210,2013-09-19 17:15:00
12:35 PM,86.9,70.7,58,29.94,10.0,SSW,15.0,24.2,N/A,Thunderstorm,Scattered Clouds,210,2013-09-19 17:35:00
12:55 PM,87.8,70.9,57,29.94,10.0,SW,15.0,-,N/A,,Scattered Clouds,230,2013-09-19 17:55:00
1:15 PM,88.3,70.7,56,29.93,10.0,SW,11.5,20.7,N/A,,Scattered Clouds,220,2013-09-19 18:15:00
1:35 PM,88.7,70.3,54,29.92,10.0,SSW,12.7,18.4,N/A,,Scattered Clouds,200,2013-09-19 18:35:00
1:55 PM,89.8,70.5,53,29.92,10.0,SSW,12.7,19.6,N/A,,Scattered Clouds,210,2013-09-19 18:55:00
2:15 PM,89.8,70.2,52,29.90,10.0,SSW,15.0,21.9,N/A,,Scattered Clouds,210,2013-09-19 19:15:00
2:35 PM,91.0,70.5,51,29.89,10.0,SSW,10.4,18.4,N/A,,Mostly Cloudy,210,2013-09-19 19:35:00
2:55 PM,90.9,69.6,50,29.89,10.0,SW,12.7,20.7,N/A,,Scattered Clouds,230,2013-09-19 19:55:00
3:15 PM,90.9,69.1,49,29.88,10.0,SSW,12.7,21.9,N/A,,Scattered Clouds,210,2013-09-19 20:15:00
3:35 PM,90.0,69.4,51,29.87,10.0,SW,12.7,18.4,N/A,,Scattered Clouds,230,2013-09-19 20:35:00
3:55 PM,90.7,69.3,49,29.86,10.0,SSW,15.0,19.6,N/A,,Mostly Cloudy,200,2013-09-19 20:55:00
4:15 PM,89.4,69.4,52,29.86,10.0,South,12.7,20.7,N/A,,Scattered Clouds,190,2013-09-19 21:15:00
4:35 PM,87.6,68.0,52,29.87,10.0,South,17.3,-,N/A,,Mostly Cloudy,170,2013-09-19 21:35:00
4:55 PM,84.2,65.1,53,29.86,10.0,South,8.1,-,N/A,,Scattered Clouds,170,2013-09-19 21:55:00
5:15 PM,81.1,69.8,68,29.85,10.0,SE,9.2,16.1,N/A,,Scattered Clouds,140,2013-09-19 22:15:00
5:35 PM,78.1,70.2,77,29.85,10.0,ESE,11.5,-,N/A,,Scattered Clouds,120,2013-09-19 22:35:00
5:55 PM,77.5,70.3,78,29.85,10.0,SE,10.4,-,N/A,,Scattered Clouds,140,2013-09-19 22:55:00
6:15 PM,77.9,70.2,77,29.84,10.0,SE,12.7,18.4,N/A,,Scattered Clouds,130,2013-09-19 23:15:00
6:35 PM,77.9,69.8,76,29.85,10.0,SE,9.2,-,N/A,,Clear,130,2013-09-19 23:35:00
6:55 PM,77.4,68.9,75,29.86,10.0,SE,11.5,-,N/A,,Scattered Clouds,140,2013-09-19 23:55:00
7:15 PM,76.5,68.0,75,29.86,10.0,SE,8.1,-,N/A,,Scattered Clouds,140,2013-09-20 00:15:00
7:35 PM,75.7,68.0,77,29.87,10.0,SE,8.1,-,N/A,,Scattered Clouds,130,2013-09-20 00:35:00
7:55 PM,75.0,68.4,80,29.87,10.0,SSE,8.1,-,N/A,,Scattered Clouds,150,2013-09-20 00:55:00
8:15 PM,75.2,69.4,82,29.87,10.0,SE,6.9,-,N/A,,Clear,140,2013-09-20 01:15:00
8:35 PM,75.4,70.0,83,29.87,10.0,SSE,4.6,-,N/A,,Clear,150,2013-09-20 01:35:00
8:55 PM,75.2,70.2,84,29.87,10.0,SSE,6.9,-,N/A,,Clear,150,2013-09-20 01:55:00
9:15 PM,76.1,69.8,81,29.86,10.0,SSE,9.2,-,N/A,,Clear,160,2013-09-20 02:15:00
9:35 PM,76.1,69.8,81,29.85,10.0,SSE,10.4,-,N/A,,Clear,160,2013-09-20 02:35:00
9:55 PM,76.1,70.0,81,29.85,10.0,South,11.5,17.3,N/A,,Clear,170,2013-09-20 02:55:00
10:15 PM,77.0,70.3,80,29.86,10.0,South,11.5,-,N/A,,Clear,170,2013-09-20 03:15:00
10:35 PM,76.5,70.7,82,29.86,10.0,South,12.7,17.3,N/A,,Clear,180,2013-09-20 03:35:00
10:55 PM,76.6,70.7,82,29.86,10.0,South,11.5,-,N/A,,Clear,180,2013-09-20 03:55:00
11:15 PM,76.3,70.7,83,29.86,10.0,South,11.5,-,N/A,,Clear,180,2013-09-20 04:15:00
11:35 PM,76.1,70.2,82,29.87,10.0,South,9.2,-,N/A,,Scattered Clouds,170,2013-09-20 04:35:00
11:55 PM,75.7,70.2,83,29.86,10.0,South,11.5,17.3,N/A,,Mostly Cloudy,180,2013-09-20 04:55:00